This is the latest recevied weather packets stored in our database for station/object N6SPP. If no packets are shown the sender has not sent any weather packets the latest 10 day(s).
| Time | Temp. | Humidity | Pressure | Rain* | Wind** | Luminosity | Snow |
|---|---|---|---|---|---|---|---|
| 1777486269 | 23.33° C | 50% | 1020.5 hPa | 0 mm | - | 687 W/m² | - |
| 1777485966 | 22.22° C | 50% | 1020.4 hPa | 0 mm | - | 677 W/m² | - |
| 1777485662 | 22.22° C | 50% | 1020.3 hPa | 0 mm | - | 668 W/m² | - |
| 1777485357 | 22.22° C | 50% | 1020.4 hPa | 0 mm | - | 659 W/m² | - |
| 1777485054 | 21.67° C | 50% | 1020.5 hPa | 0 mm | - | 649 W/m² | - |
| 1777484751 | 21.67° C | 51% | 1020.4 hPa | 0 mm | - | 639 W/m² | - |
| 1777484447 | 21.67° C | 51% | 1020.5 hPa | 0 mm | - | 629 W/m² | - |
| 1777484144 | 21.11° C | 52% | 1020.5 hPa | 0 mm | - | 616 W/m² | - |
| 1777483840 | 21.11° C | 53% | 1020.6 hPa | 0 mm | - | 605 W/m² | - |
| 1777483537 | 21.11° C | 53% | 1020.5 hPa | 0 mm | - | 594 W/m² | - |
| 1777483232 | 21.11° C | 52% | 1020.5 hPa | 0 mm | - | 582 W/m² | - |
| 1777482928 | 21.11° C | 53% | 1020.8 hPa | 0 mm | - | 555 W/m² | - |
| 1777482624 | 21.11° C | 53% | 1020.6 hPa | 0 mm | - | 556 W/m² | - |
| 1777482322 | 21.11° C | 52% | 1020.5 hPa | 0 mm | - | 544 W/m² | - |
| 1777482019 | 20.56° C | 53% | 1020.7 hPa | 0 mm | - | 531 W/m² | - |
| 1777481716 | 20.56° C | 53% | 1020.7 hPa | 0 mm | - | 518 W/m² | - |
| 1777481414 | 20.56° C | 53% | 1020.8 hPa | 0 mm | - | 504 W/m² | - |
| 1777481110 | 20.56° C | 52% | 1020.9 hPa | 0 mm | - | 491 W/m² | - |
| 1777480806 | 20.56° C | 53% | 1020.7 hPa | 0 mm | - | 476 W/m² | - |
| 1777480503 | 21.11° C | 52% | 1020.8 hPa | 0 mm | - | 461 W/m² | - |
| 1777480199 | 20.56° C | 53% | 1020.8 hPa | 0 mm | - | 447 W/m² | - |
| 1777479896 | 20.56° C | 54% | 1020.7 hPa | 0 mm | - | 431 W/m² | - |
| 1777479593 | 21.11° C | 53% | 1020.8 hPa | 0 mm | - | 417 W/m² | - |
| 1777479291 | 20° C | 53% | 1020.8 hPa | 0 mm | - | 400 W/m² | - |
| 1777478987 | 20° C | 55% | 1020.7 hPa | 0 mm | - | 383 W/m² | - |
* Rain latest hour (hover to see other rain measurements)
** Current wind speed in m/s (hover to see current wind gust speed)